SCP
-0 -0 -0 -0 -0 0 0 1 1 1 1 0 1 0 0 0 0 -0 -0 -0 -0 -0 -0 -0 -0 0 0 0 0 0 0 0 0 0 0 0 1 0 0 0 0 0 0
-0 -0 -1 -1 -1 -2 -1 -0 0 1 1 1 1 1 1 0 0 0 0 -0 0 -0 -0 -0 -0 -0 0 0 0 0 0 0 0 0 0 0 1 1 0 1 0 0 0
-0 -0 0 -1 -1 -2 -2 -1 -1 -0 0 -0 -0 0 0 1 0 0 0 0 0 0 -0 -0 -0 0 0 0 0 0 0 0 0 0 0 0 0 0 1 1 1 0 0
-0 -0 -0 -0 -1 -1 -1 -1 -1 -1 -1 -1 -1 -0 -1 -0 0 0 0 0 -0 0 0 0 0 0 0 1 1 1 1 0 0 0 0 0 0 1 0 0 1 0 0
-0 -1 -1 -1 0 -0 -1 -1 -1 -1 -0 -1 -1 -2 -1 -1 -1 -1 -0 -0 -0 0 1 1 1 1 0 1 1 1 1 1 0 0 0 0 0 0 1 0 0 0 1
-0 -1 -1 -1 -0 -0 -0 0 0 -1 -1 -1 -3 -3 -3 -2 -1 -1 -1 -0 0 0 1 2 3 1 1 0 1 0 1 2 1 1 1 1 3 2 1 1 0 0 1
0 0 -0 -0 -1 -0 0 1 0 -1 0 -1 -1 -2 -3 -3 -1 -0 -0 0 0 1 1 2 1 1 1 2 0 0 0 1 1 3 3 3 6 4 4 5 3 1 1
1 1 0 0 -0 -0 -0 0 1 2 1 1 1 0 -0 -0 1 0 0 1 1 1 1 1 1 1 3 3 3 1 1 1 1 1 5 4 3 5 5 5 4 3 1
1 2 1 2 2 2 0 1 2 3 2 1 2 2 2 2 2 1 0 2 2 2 2 2 3 5 4 2 6 6 3 2 1 1 1 1 1 1 2 2 1 1 0
2 3 3 3 3 2 1 1 3 3 3 3 3 2 2 3 4 1 1 6 4 4 2 4 3 4 7 1 6 10 10 5 4 2 0 0 0 0 0 1 2 1 2
2 3 4 3 4 3 2 3 2 2 2 2 2 3 3 4 6 0 0 6 3 8 4 6 7 3 5 1 1 11 10 10 3 3 1 1 1 1 0 0 1 1 1
4 4 4 4 3 2 3 3 3 3 3 3 4 4 5 7 6 1 2 1 5 12 10 9 10 4 2 0 0 5 5 3 3 2 2 2 2 1 1 1 1 1 1
3 3 4 4 4 3 3 4 3 3 2 4 4 4 5 6 6 2 2 1 0 3 6 8 6 4 0 0 0 0 0 1 2 1 1 1 1 1 1 1 1 1 0
4 4 4 5 5 4 4 3 3 3 3 2 3 2 3 4 4 6 5 1 0 0 2 6 5 1 0 0 0 0 3 0 0 4 3 2 1 1 0 0 0 0 0
2 2 4 4 4 5 6 5 4 6 3 3 2 3 3 3 3 5 4 6 3 1 2 2 0 0 0 0 0 0 1 1 1 2 3 3 1 0 0 0 0 0 0
2 2 2 3 4 4 4 2 0 0 0 0 0 1 7 1 0 4 7 5 2 1 3 0 0 0 0 0 0 0 0 1 1 1 1 0 0 0 0 0 0 0 0
4 4 3 3 3 4 5 4 4 0 0 0 0 0 0 0 0 0 0 0 0 0 1 0 0 0 0 0 0 0 0 0 1 0 0 0 0 0 0 0 0 0 0
7 6 4 5 4 5 5 4 4 4 4 2 0 0 0 0 0 0 0 0 0 0 0 0 0 0 0 0 0 0 0 0 0 0 0 0 0 0 0 0 0 0 0
7 7 8 9 7 5 4 2 2 2 2 1 0 0 0 0 0 0 0 0 0 0 0 0 0 0 0 0 -0 0 0 0 0 0 0 0 0 0 0 0 0 0 0
2 2 2 3 3 2 2 2 1 1 1 1 1 1 0 0 0 0 0 0 0 0 0 0 0 0 0 0 0 0 0 0 0 0 0 0 0 0 0 0 0 0 0
1 1 1 1 1 2 2 2 1 1 1 1 1 0 0 0 0 0 0 0 0 0 0 0 0 0 0 0 0 0 0 0 0 0 0 0 0 0 0 0 0 0 0
1 1 1 1 1 1 1 0 0 0 0 0 0 0 0 0 0 0 0 0 0 0 0 0 0 0 0 0 0 0 0 0 0 0 0 0 0 0 0 0 0 0 0
1 1 1 1 1 1 1 1 0 0 0 0 0 0 0 0 0 0 0 0 0 0 0 0 0 0 0 0 0 0 0 0 0 0 0 0 0 0 0 0 0 0 0
0 0 1 1 1 1 1 1 0 0 0 0 0 0 0 0 0 0 0 0 0 0 0 0 0 0 0 0 0 0 0 0 0 0 0 0 0 0 0 0 0 0 0
0 0 0 0 0 0 0 0 0 0 0 0 0 0 0 0 0 0 0 0 0 0 0 0 0 0 0 0 0 0 0 0 0 0 0 0 0 0 0 0 0 0 0
0 0 0 0 0 0 0 0 0 0 0 0 0 0 0 0 0 0 0 0 0 0 0 0 0 0 0 0 0 0 0 0 0 0 0 0 0 0 0 0 0 0 0
Wind_Speed_500mb
94 94 95 94 91 86 87 85 74 66 61 58 48 50 50 50 52 53 49 41 49 48 46 46 47 39 30 28 26 24 23 23 22 19 16 21 32 28 25 29 23 18 22
95 94 98 96 93 93 92 91 87 81 76 74 63 67 59 56 57 58 57 50 55 55 55 57 58 50 50 42 33 34 30 29 27 28 20 23 27 26 27 30 22 20 23
85 86 93 98 98 98 94 90 88 83 81 78 76 75 75 67 64 67 66 64 64 67 64 61 61 58 55 51 54 39 37 40 32 32 25 26 28 23 26 26 28 25 30
78 81 85 95 98 96 94 93 90 88 85 85 83 80 79 74 71 73 76 76 77 76 73 66 61 60 61 60 57 54 45 38 35 34 29 29 28 27 26 25 29 24 22
83 85 91 92 93 92 93 91 90 92 92 88 85 86 85 83 76 79 82 85 83 81 73 72 66 69 69 64 61 57 54 55 38 31 29 30 32 33 30 25 26 26 19
81 92 88 87 88 94 94 95 93 92 95 95 94 89 89 88 80 80 79 84 81 83 83 87 79 75 75 74 69 60 58 53 48 42 43 41 40 37 34 33 30 30 32
86 79 88 89 93 92 92 95 101 104 97 100 96 92 93 95 98 92 84 83 83 80 79 74 89 77 81 78 74 70 68 67 62 55 55 48 39 37 42 38 37 38 32
79 91 82 89 88 90 90 93 88 84 91 91 92 94 95 98 96 95 94 89 88 88 82 89 93 91 84 83 79 81 82 82 77 66 63 54 56 52 37 43 46 43 36
73 86 92 81 87 89 91 82 77 78 78 82 87 89 96 99 95 95 93 91 97 99 102 103 105 100 94 95 94 91 84 86 85 81 70 63 57 46 49 45 32 31 32
67 70 74 78 82 88 85 83 79 78 78 70 78 89 94 97 95 93 86 79 85 102 114 115 106 96 92 92 101 101 100 95 85 74 68 68 67 59 54 58 45 35 38
53 56 66 74 78 80 77 75 73 73 64 71 74 81 84 87 90 96 93 86 87 114 121 114 106 97 95 101 99 103 102 89 82 66 57 52 57 55 61 61 47 50 41
58 58 62 68 69 64 74 70 69 67 68 73 73 73 69 80 85 97 90 111 101 113 118 116 100 90 84 88 91 103 106 100 82 64 54 49 57 54 67 60 42 53 44
58 64 64 64 64 64 65 68 60 61 57 56 57 59 58 58 76 90 99 106 100 98 85 67 69 76 65 65 76 100 111 100 68 67 103 82 59 56 59 50 43 48 51
58 59 57 60 61 64 50 48 49 49 52 54 50 53 50 51 55 55 63 80 95 86 90 87 81 79 72 75 81 89 119 57 84 93 74 73 64 64 58 53 55 46 43
43 41 46 44 47 45 46 47 43 43 52 45 44 41 41 45 45 59 64 63 74 67 78 78 93 93 85 79 76 79 92 42 67 65 85 79 65 57 58 60 57 40 29
35 36 37 38 39 41 49 51 54 53 54 50 45 45 39 43 48 47 47 42 48 52 64 74 80 81 80 71 72 81 87 51 70 74 80 62 59 58 68 54 42 39 33
32 35 35 36 33 38 37 34 40 52 44 50 56 60 59 60 66 65 65 73 69 53 65 69 57 47 55 56 61 64 69 61 74 85 64 54 58 67 55 54 43 37 31
33 39 34 31 33 32 26 22 25 24 23 28 45 39 40 37 36 34 29 30 28 24 31 34 38 39 26 33 27 42 52 67 68 71 55 58 69 51 52 46 39 32 29
31 29 34 31 30 30 25 22 22 21 19 14 17 19 17 17 20 21 18 6 1 10 24 12 14 26 33 30 23 34 49 61 67 54 59 53 44 44 44 40 35 33 35
29 34 29 27 27 24 19 19 18 18 16 14 11 8 19 17 13 9 9 6 11 14 19 19 22 14 20 17 24 50 43 54 51 57 46 48 48 42 39 35 35 32 36
24 28 27 24 22 21 19 15 15 12 10 9 10 19 17 13 10 11 14 13 10 13 18 17 22 19 21 22 23 25 50 50 59 53 52 46 43 39 37 35 34 35 32
27 24 25 24 24 19 14 13 11 10 9 7 5 8 15 13 11 13 11 10 9 18 16 16 18 20 20 27 33 36 39 44 48 50 44 42 40 37 36 35 34 34 31
30 27 24 22 28 29 24 21 21 20 18 18 16 16 10 8 9 8 11 11 13 14 19 21 16 17 20 32 37 41 43 42 38 42 43 40 38 37 36 36 35 34 31
46 44 44 36 29 31 28 24 15 17 17 14 16 13 7 7 8 7 7 10 11 12 8 14 19 20 24 29 30 33 32 35 41 41 39 38 37 40 36 35 35 35 34
43 46 46 34 33 33 37 38 25 20 21 16 18 18 12 4 4 9 10 10 12 15 18 21 23 29 33 32 31 32 39 41 35 33 38 36 38 37 37 37 36 37 36
39 40 39 39 36 31 25 23 22 23 25 15 15 13 14 6 13 17 10 9 14 17 19 21 25 29 33 31 32 39 35 33 36 38 31 31 34 37 36 38 37 37 35
Wind_Direction_500mb
225 224 226 229 231 231 228 231 229 229 220 220 220 230 222 218 219 224 221 221 243 237 230 229 241 227 218 233 229 229 236 237 239 247 231 233 244 239 231 253 245 247 252
223 224 227 231 233 234 234 230 234 234 236 236 229 229 233 224 222 227 230 220 230 239 237 235 240 239 230 217 229 233 231 233 236 243 239 241 256 258 241 236 235 242 254
218 220 222 228 230 233 235 234 232 234 236 238 239 234 237 236 230 231 235 233 228 239 242 241 241 241 241 235 230 232 238 232 239 240 243 246 248 251 247 251 241 251 243
218 219 221 224 229 232 233 236 235 234 235 236 238 238 238 239 239 238 238 237 237 237 243 245 246 244 245 247 239 238 226 234 237 237 244 244 244 245 245 255 257 251 254
217 219 222 227 228 226 229 232 235 235 237 237 241 241 239 240 237 239 239 242 241 240 238 246 244 247 252 248 247 241 239 233 232 244 252 256 255 249 244 253 260 262 254
217 217 220 222 226 228 228 230 231 234 235 236 239 240 240 238 234 237 242 241 241 242 242 243 244 247 251 250 247 242 246 239 234 226 237 242 245 244 248 258 266 268 270
220 219 218 220 225 228 228 228 233 233 233 236 238 240 240 241 241 239 241 243 243 239 241 239 246 242 246 247 247 245 241 243 243 245 235 232 240 248 242 245 246 251 262
220 221 220 219 221 226 229 229 227 226 230 233 235 239 241 243 243 242 241 244 249 247 243 248 249 245 238 246 248 245 243 240 242 240 247 248 243 239 245 246 251 254 267
227 225 222 218 218 223 230 224 225 228 229 231 235 237 242 242 238 241 238 237 244 249 253 252 251 246 242 243 250 250 246 244 242 238 236 242 237 239 247 254 241 256 264
246 229 224 217 219 223 226 230 232 234 235 229 232 237 240 240 238 235 232 233 242 251 254 254 250 243 240 239 243 249 248 246 236 235 238 237 238 238 237 244 244 244 255
229 225 223 219 218 225 228 229 230 230 221 230 228 235 236 235 236 236 230 235 245 253 248 249 249 244 239 244 243 243 247 242 248 243 239 239 242 248 238 237 241 243 244
228 221 220 219 217 218 220 224 223 224 226 225 232 229 235 233 234 237 236 230 248 248 251 254 245 244 244 245 246 240 235 237 243 240 234 243 250 235 231 240 246 240 233
226 217 213 214 216 206 221 215 216 222 220 228 229 234 232 235 241 242 245 244 250 248 250 245 237 237 237 246 246 240 231 225 214 237 237 228 222 241 228 238 237 234 223
219 212 205 206 210 204 212 211 211 216 222 222 225 228 233 234 238 244 250 256 253 244 253 251 245 247 252 260 253 245 223 220 270 227 223 223 218 214 215 217 218 225 217
208 204 202 202 202 201 197 204 209 213 219 224 226 229 232 237 241 246 247 249 268 272 256 255 254 255 259 258 249 234 221 252 218 218 222 217 211 208 204 209 216 215 212
195 194 197 192 194 191 204 207 203 212 217 221 222 222 225 240 246 250 249 249 264 271 272 269 266 262 262 256 248 226 228 226 219 220 220 218 217 209 194 198 198 198 204
184 186 186 186 188 189 194 203 210 215 221 222 233 241 244 255 262 266 265 265 272 274 256 263 262 249 239 235 230 232 225 218 219 218 222 216 209 190 193 187 195 203 208
170 165 164 168 172 177 188 194 191 199 207 234 241 245 248 254 259 261 262 264 256 251 253 239 221 197 194 187 197 217 222 222 221 222 214 211 194 186 182 189 199 204 212
134 146 153 147 156 161 162 155 160 164 165 162 179 205 222 252 268 263 258 221 328 235 215 234 258 272 268 267 233 212 209 215 208 200 196 185 178 182 188 196 204 208 213
145 135 134 138 138 142 149 158 163 167 174 179 170 205 265 267 235 230 194 192 199 206 231 251 258 239 219 188 192 194 203 206 213 205 182 184 185 190 196 200 205 208 217
126 119 129 124 125 131 148 157 175 174 186 224 225 223 227 189 209 238 248 249 221 212 200 208 207 219 211 215 197 210 215 215 189 183 185 184 189 195 201 207 210 213 216
118 119 128 135 137 131 137 139 139 153 160 128 83 147 178 194 214 199 237 214 189 176 186 219 230 241 244 231 226 185 179 187 186 182 185 190 195 198 204 207 211 214 210
107 114 112 109 115 113 106 101 107 114 122 124 129 125 128 176 217 229 200 189 216 219 229 231 244 234 178 165 169 169 177 185 188 188 195 193 196 201 207 209 210 209 208
104 110 96 89 107 99 98 95 99 126 117 119 110 106 115 111 146 161 183 188 192 198 190 174 168 163 169 169 174 183 186 190 192 194 194 198 201 208 206 209 209 209 210
81 87 92 83 78 82 85 84 91 79 92 104 88 96 108 122 113 167 179 177 189 189 186 182 185 184 179 178 181 185 193 194 187 195 199 204 207 211 206 209 208 209 210
76 80 81 82 84 77 82 118 119 99 72 84 90 125 124 145 126 138 162 187 201 202 200 191 191 186 180 179 185 196 201 214 221 209 202 204 207 208 209 208 210 208 212
Wind_Speed_850mb
94 94 95 94 91 86 87 85 74 66 61 58 48 50 50 50 52 53 49 41 49 48 46 46 47 39 30 28 26 24 23 23 22 19 16 21 32 28 25 29 23 18 22
95 94 98 96 93 93 92 91 87 81 76 74 63 67 59 56 57 58 57 50 55 55 55 57 58 50 50 42 33 34 30 29 27 28 20 23 27 26 27 30 22 20 23
85 86 93 98 98 98 94 90 88 83 81 78 76 75 75 67 64 67 66 64 64 67 64 61 61 58 55 51 54 39 37 40 32 32 25 26 28 23 26 26 28 25 30
78 81 85 95 98 96 94 93 90 88 85 85 83 80 79 74 71 73 76 76 77 76 73 66 61 60 61 60 57 54 45 38 35 34 29 29 28 27 26 25 29 24 22
83 85 91 92 93 92 93 91 90 92 92 88 85 86 85 83 76 79 82 85 83 81 73 72 66 69 69 64 61 57 54 55 38 31 29 30 32 33 30 25 26 26 19
81 92 88 87 88 94 94 95 93 92 95 95 94 89 89 88 80 80 79 84 81 83 83 87 79 75 75 74 69 60 58 53 48 42 43 41 40 37 34 33 30 30 32
86 79 88 89 93 92 92 95 101 104 97 100 96 92 93 95 98 92 84 83 83 80 79 74 89 77 81 78 74 70 68 67 62 55 55 48 39 37 42 38 37 38 32
79 91 82 89 88 90 90 93 88 84 91 91 92 94 95 98 96 95 94 89 88 88 82 89 93 91 84 83 79 81 82 82 77 66 63 54 56 52 37 43 46 43 36
73 86 92 81 87 89 91 82 77 78 78 82 87 89 96 99 95 95 93 91 97 99 102 103 105 100 94 95 94 91 84 86 85 81 70 63 57 46 49 45 32 31 32
67 70 74 78 82 88 85 83 79 78 78 70 78 89 94 97 95 93 86 79 85 102 114 115 106 96 92 92 101 101 100 95 85 74 68 68 67 59 54 58 45 35 38
53 56 66 74 78 80 77 75 73 73 64 71 74 81 84 87 90 96 93 86 87 114 121 114 106 97 95 101 99 103 102 89 82 66 57 52 57 55 61 61 47 50 41
58 58 62 68 69 64 74 70 69 67 68 73 73 73 69 80 85 97 90 111 101 113 118 116 100 90 84 88 91 103 106 100 82 64 54 49 57 54 67 60 42 53 44
58 64 64 64 64 64 65 68 60 61 57 56 57 59 58 58 76 90 99 106 100 98 85 67 69 76 65 65 76 100 111 100 68 67 103 82 59 56 59 50 43 48 51
58 59 57 60 61 64 50 48 49 49 52 54 50 53 50 51 55 55 63 80 95 86 90 87 81 79 72 75 81 89 119 57 84 93 74 73 64 64 58 53 55 46 43
43 41 46 44 47 45 46 47 43 43 52 45 44 41 41 45 45 59 64 63 74 67 78 78 93 93 85 79 76 79 92 42 67 65 85 79 65 57 58 60 57 40 29
35 36 37 38 39 41 49 51 54 53 54 50 45 45 39 43 48 47 47 42 48 52 64 74 80 81 80 71 72 81 87 51 70 74 80 62 59 58 68 54 42 39 33
32 35 35 36 33 38 37 34 40 52 44 50 56 60 59 60 66 65 65 73 69 53 65 69 57 47 55 56 61 64 69 61 74 85 64 54 58 67 55 54 43 37 31
33 39 34 31 33 32 26 22 25 24 23 28 45 39 40 37 36 34 29 30 28 24 31 34 38 39 26 33 27 42 52 67 68 71 55 58 69 51 52 46 39 32 29
31 29 34 31 30 30 25 22 22 21 19 14 17 19 17 17 20 21 18 6 1 10 24 12 14 26 33 30 23 34 49 61 67 54 59 53 44 44 44 40 35 33 35
29 34 29 27 27 24 19 19 18 18 16 14 11 8 19 17 13 9 9 6 11 14 19 19 22 14 20 17 24 50 43 54 51 57 46 48 48 42 39 35 35 32 36
24 28 27 24 22 21 19 15 15 12 10 9 10 19 17 13 10 11 14 13 10 13 18 17 22 19 21 22 23 25 50 50 59 53 52 46 43 39 37 35 34 35 32
27 24 25 24 24 19 14 13 11 10 9 7 5 8 15 13 11 13 11 10 9 18 16 16 18 20 20 27 33 36 39 44 48 50 44 42 40 37 36 35 34 34 31
30 27 24 22 28 29 24 21 21 20 18 18 16 16 10 8 9 8 11 11 13 14 19 21 16 17 20 32 37 41 43 42 38 42 43 40 38 37 36 36 35 34 31
46 44 44 36 29 31 28 24 15 17 17 14 16 13 7 7 8 7 7 10 11 12 8 14 19 20 24 29 30 33 32 35 41 41 39 38 37 40 36 35 35 35 34
43 46 46 34 33 33 37 38 25 20 21 16 18 18 12 4 4 9 10 10 12 15 18 21 23 29 33 32 31 32 39 41 35 33 38 36 38 37 37 37 36 37 36
39 40 39 39 36 31 25 23 22 23 25 15 15 13 14 6 13 17 10 9 14 17 19 21 25 29 33 31 32 39 35 33 36 38 31 31 34 37 36 38 37 37 35
Wind_Direction_850mb
225 224 226 229 231 231 228 231 229 229 220 220 220 230 222 218 219 224 221 221 243 237 230 229 241 227 218 233 229 229 236 237 239 247 231 233 244 239 231 253 245 247 252
223 224 227 231 233 234 234 230 234 234 236 236 229 229 233 224 222 227 230 220 230 239 237 235 240 239 230 217 229 233 231 233 236 243 239 241 256 258 241 236 235 242 254
218 220 222 228 230 233 235 234 232 234 236 238 239 234 237 236 230 231 235 233 228 239 242 241 241 241 241 235 230 232 238 232 239 240 243 246 248 251 247 251 241 251 243
218 219 221 224 229 232 233 236 235 234 235 236 238 238 238 239 239 238 238 237 237 237 243 245 246 244 245 247 239 238 226 234 237 237 244 244 244 245 245 255 257 251 254
217 219 222 227 228 226 229 232 235 235 237 237 241 241 239 240 237 239 239 242 241 240 238 246 244 247 252 248 247 241 239 233 232 244 252 256 255 249 244 253 260 262 254
217 217 220 222 226 228 228 230 231 234 235 236 239 240 240 238 234 237 242 241 241 242 242 243 244 247 251 250 247 242 246 239 234 226 237 242 245 244 248 258 266 268 270
220 219 218 220 225 228 228 228 233 233 233 236 238 240 240 241 241 239 241 243 243 239 241 239 246 242 246 247 247 245 241 243 243 245 235 232 240 248 242 245 246 251 262
220 221 220 219 221 226 229 229 227 226 230 233 235 239 241 243 243 242 241 244 249 247 243 248 249 245 238 246 248 245 243 240 242 240 247 248 243 239 245 246 251 254 267
227 225 222 218 218 223 230 224 225 228 229 231 235 237 242 242 238 241 238 237 244 249 253 252 251 246 242 243 250 250 246 244 242 238 236 242 237 239 247 254 241 256 264
246 229 224 217 219 223 226 230 232 234 235 229 232 237 240 240 238 235 232 233 242 251 254 254 250 243 240 239 243 249 248 246 236 235 238 237 238 238 237 244 244 244 255
229 225 223 219 218 225 228 229 230 230 221 230 228 235 236 235 236 236 230 235 245 253 248 249 249 244 239 244 243 243 247 242 248 243 239 239 242 248 238 237 241 243 244
228 221 220 219 217 218 220 224 223 224 226 225 232 229 235 233 234 237 236 230 248 248 251 254 245 244 244 245 246 240 235 237 243 240 234 243 250 235 231 240 246 240 233
226 217 213 214 216 206 221 215 216 222 220 228 229 234 232 235 241 242 245 244 250 248 250 245 237 237 237 246 246 240 231 225 214 237 237 228 222 241 228 238 237 234 223
219 212 205 206 210 204 212 211 211 216 222 222 225 228 233 234 238 244 250 256 253 244 253 251 245 247 252 260 253 245 223 220 270 227 223 223 218 214 215 217 218 225 217
208 204 202 202 202 201 197 204 209 213 219 224 226 229 232 237 241 246 247 249 268 272 256 255 254 255 259 258 249 234 221 252 218 218 222 217 211 208 204 209 216 215 212
195 194 197 192 194 191 204 207 203 212 217 221 222 222 225 240 246 250 249 249 264 271 272 269 266 262 262 256 248 226 228 226 219 220 220 218 217 209 194 198 198 198 204
184 186 186 186 188 189 194 203 210 215 221 222 233 241 244 255 262 266 265 265 272 274 256 263 262 249 239 235 230 232 225 218 219 218 222 216 209 190 193 187 195 203 208
170 165 164 168 172 177 188 194 191 199 207 234 241 245 248 254 259 261 262 264 256 251 253 239 221 197 194 187 197 217 222 222 221 222 214 211 194 186 182 189 199 204 212
134 146 153 147 156 161 162 155 160 164 165 162 179 205 222 252 268 263 258 221 328 235 215 234 258 272 268 267 233 212 209 215 208 200 196 185 178 182 188 196 204 208 213
145 135 134 138 138 142 149 158 163 167 174 179 170 205 265 267 235 230 194 192 199 206 231 251 258 239 219 188 192 194 203 206 213 205 182 184 185 190 196 200 205 208 217
126 119 129 124 125 131 148 157 175 174 186 224 225 223 227 189 209 238 248 249 221 212 200 208 207 219 211 215 197 210 215 215 189 183 185 184 189 195 201 207 210 213 216
118 119 128 135 137 131 137 139 139 153 160 128 83 147 178 194 214 199 237 214 189 176 186 219 230 241 244 231 226 185 179 187 186 182 185 190 195 198 204 207 211 214 210
107 114 112 109 115 113 106 101 107 114 122 124 129 125 128 176 217 229 200 189 216 219 229 231 244 234 178 165 169 169 177 185 188 188 195 193 196 201 207 209 210 209 208
104 110 96 89 107 99 98 95 99 126 117 119 110 106 115 111 146 161 183 188 192 198 190 174 168 163 169 169 174 183 186 190 192 194 194 198 201 208 206 209 209 209 210
81 87 92 83 78 82 85 84 91 79 92 104 88 96 108 122 113 167 179 177 189 189 186 182 185 184 179 178 181 185 193 194 187 195 199 204 207 211 206 209 208 209 210
76 80 81 82 84 77 82 118 119 99 72 84 90 125 124 145 126 138 162 187 201 202 200 191 191 186 180 179 185 196 201 214 221 209 202 204 207 208 209 208 210 208 212